Simultaneous Nadir Overpasses (SNOs) Predictions

Prediction of SNOs over PacNW region [( 10.00, 139.50) to ( 22.70, 165.60)] between AQUA and NPP Satellites:

Table of predicted SNOs over PacNW region for the next 30.0 days since TLE Epoch: 10/16/2015
Index Date (AQUA) Time (AQUA) AQUA Lat,Lon Date (NPP) Time (NPP) NPP Lat,Lon Distance(km) Time Diff (sec)
1 10/21/2015 02:41:46 20.85, 160.28 10/21/2015 02:38:47 20.56, 159.01 136.11 179
2 10/26/2015 15:09:57 22.58, 159.78 10/26/2015 15:13:25 24.55, 157.58 313.04 208
3 10/29/2015 03:30:14 16.96, 148.79 10/29/2015 03:28:19 16.62, 147.26 166.21 115
4 11/06/2015 02:42:14 22.02, 159.96 11/06/2015 02:38:55 21.76, 158.70 132.93 199
5 11/11/2015 15:10:02 22.60, 159.76 11/11/2015 15:13:30 23.55, 157.32 270.87 208




NCC Satellite Simultaneous Nadir Overpasses (SNOs) Prediction Service
